www.pogodaiklimat.ru

Погода и климат >> Архив погоды >> Финляндия >> Аэропорт Пирккала


ПОГОДА в Аэропорту Пирккала

  • Прогноз погоды в Аэропорту Пирккала
  • Монитор погоды в Аэропорту Пирккала

АРХИВ ПОГОДЫ в Аэропорту Пирккала

Время (UTC), дата Ветер
(напр.,м/с)
 
Видим.   Явления Облачность Т
(С)
Тd
(С)
f
(%)
Тe
(С)
Тes
(С)
Комфортность P
(гПа)
Po
(гПа)
Тmin
(С)
Tmax
(С)
R
(мм)
R24
(мм)
S
(см)
22 9.09 ЮВ 3 1900 м дымка 9/9 <50 м
[]
+14.9 +14.6 98 +14 +14 1021.7 1007.4
23 9.09 В 1 7000 м 9/9 <50 м
[]
+14.9 +14.4 97 +15 +15 1021.5 1007.2
00 10.09 В 2 7000 м 9/9 <50 м
[]
+14.8 +14.3 97 +14 +14 1021.5 1007.2
01 10.09 В 3 5000 м 10/10 <50 м
[]
+14.7 +14.2 97 +14 +14 1021.4 1007.1
02 10.09 В 2 2700 м дымка 9/9 <50 м
[]
+14.3 +14.0 98 +14 +14 1021.1 1006.8
03 10.09 В 3 7000 м 9/9 <50 м
[]
+14.4 +13.9 97 +13 +13 1020.7 1006.4
04 10.09 В 3 9000 м 10/10 50 м
[]
+14.4 +13.8 96 +13 +13 1020.4 1006.1
05 10.09 В 3 10 км 9/9 50 м
[]
+14.4 +13.8 96 +13 +13 1020.3 1006.0
06 10.09 В 3 10 км 9/4 50 м
[]
+14.7 +14.1 96 +14 +14 1020.1 1005.8 +14.3 +15.9
07 10.09 В 2 15 км 9/1 50 м
[]
+14.9 +13.9 94 +15 +16 1020.1 1005.8
08 10.09 В 3 20 км 9/4 200 м
[]
+15.7 +14.4 92 +15 +16 1020.0 1005.7
09 10.09 В 4 15 км 9/9 100 м
[]
+17.0 +15.5 91 +17 +17 1019.9 1005.7
10 10.09 В 4 20 км 1/0 300 м
[]
+19.2 +16.3 83 +21 +23 комфорт 1019.4 1005.3
11 10.09 В 3 25 км 1/0
[]
+20.6 +15.4 72 +24 +29 комфорт 1019.1 1005.1
12 10.09 В 4 25 км ясно +21.8 +15.4 67 +25 +29 комфорт 1018.6 1004.7
13 10.09 В 4 25 км ясно +22.5 +15.4 64 +26 +29 жарко 1018.5 1004.6
14 10.09 В 5 30 км ясно +22.6 +14.2 59 +26 +27 жарко 1018.1 1004.2
15 10.09 В 4 30 км ясно +21.7 +14.4 63 +25 +26 комфорт 1018.1 1004.2
16 10.09 В 3 25 км ясно +21.0 +14.9 68 +25 +25 комфорт 1018.0 1004.0
17 10.09 В 2 25 км ясно +19.2 +15.3 78 +21 +21 комфорт 1018.1 1004.0
18 10.09 В 3 20 км ясно +18.3 +14.6 79 +19 +19 1018.0 1003.9 +14.7 +22.7
19 10.09 В 3 25 км ясно +17.8 +14.3 80 +18 +18 1017.9 1003.8
20 10.09 В 3 30 км 4/0
[]
+17.1 +13.8 81 +17 +17 1017.7 1003.5
21 10.09 В 2 20 км 4/1 2000 м
[]
+15.9 +13.2 84 +16 +16 1017.6 1003.4
22 10.09 ЮВ 2 25 км 6/0
[]
+16.0 +13.1 83 +16 +16 1017.4 1003.2
23 10.09 В 3 25 км 6/4 2000 м
[]
+16.0 +12.8 81 +16 +16 1016.9 1002.7
00 11.09 В 3 30 км 9/4
[]
+15.8 +12.2 79 +15 +15 1016.2 1002.0
01 11.09 ЮВ 3 25 км 9/0
[]
+16.0 +11.4 74 +16 +16 1016.0 1001.8
02 11.09 В 3 30 км 1/0
[]
+15.3 +11.1 76 +15 +15 1015.7 1001.5
03 11.09 В 3 25 км 1/0 2000 м
[]
+14.2 +11.2 82 +13 +13 1015.0 1000.7
04 11.09 В 3 25 км ясно +14.0 +11.3 84 +13 +13 1014.8 1000.5
05 11.09 ЮВ 3 25 км ясно +14.5 +11.5 82 +14 +14 1013.9 999.7
06 11.09 ЮВ 4 30 км 1/1 1000 м
[]
+15.4 +11.2 76 +14 +15 1013.3 999.1 +14.0 +18.3
07 11.09 ЮВ 5 25 км 9/9 300 м
[]
+15.3 +11.1 76 +14 +15 1013.1 998.9
08 11.09 ЮВ 3 30 км 9/9 600 м
[]
+15.5 +11.5 77 +15 +15 1012.6 998.4
09 11.09 ЮВ 5 35 км 10/10 600 м
[]
+15.7 +11.3 75 +15 +15 1011.9 997.8
10 11.09 Ю 5 30 км 9/9 300 м
[]
+15.3 +11.5 78 +14 +14 1011.8 997.6
11 11.09 ЮВ 5 35 км 10/10 300 м
[]
+14.4 +11.9 85 +13 +13 1011.6 997.4
12 11.09 ЮВ 5 40 км 10/10 300 м
[]
+14.4 +11.9 85 +13 +13 1010.7 996.5
13 11.09 ЮВ 5 8000 м слаб. ливневой дождь 9/9 200 м
[]
+14.2 +12.6 90 +12 +13 1010.0 995.8
14 11.09 ЮВ 5 20 км слаб. ливневой дождь 9/9 200 м
[]
+14.3 +13.2 93 +13 +13 1009.2 995.0
15 11.09 ЮВ 5 10 км слаб. дождь 9/9 100 м
[]
+14.4 +13.4 94 +13 +13 1008.0 993.9
16 11.09 Ю 5 35 км 10/10 200 м
[]
+14.7 +13.6 93 +13 +13 1008.0 993.9
17 11.09 Ю 5 10 км дождь 9/9 200 м
[]
+14.6 +13.6 94 +13 +13 1008.4 994.3
18 11.09 Ю 6 35 км слаб. ливневой дождь 10/10 200 м
[]
+14.6 +13.5 93 +13 +13 1009.2 995.0 +14.1 +15.7
19 11.09 Ю 6 25 км 9/6 200 м
[]
+14.7 +13.6 93 +13 +13 1009.6 995.4
20 11.09 Ю 5 35 км 9/9 200 м
[]
+14.7 +13.4 92 +13 +13 1009.9 995.7
21 11.09 Ю 4 6000 м дождь 10/10 200 м
[]
+14.4 +13.6 95 +13 +13 1010.1 995.9
22 11.09 Ю 5 35 км 9/9 300 м
[]
+14.2 +12.9 92 +12 +12 1010.6 996.4
23 11.09 Ю 5 30 км 9/0
[]
+13.3 +12.0 92 +11 +11 1010.9 996.7
00 12.09 Ю 4 40 км 9/1 1000 м
[]
+12.9 +11.5 91 +11 +11 1011.1 996.8
01 12.09 Ю 4 25 км 9/1 1500 м
[]
+13.1 +11.7 91 +11 +11 1011.1 996.8
02 12.09 Ю 3 20 км 9/1 300 м
[]
+13.1 +12.0 93 +12 +12 1010.6 996.4
03 12.09 Ю 3 25 км 10/6 200 м
[]
+13.3 +12.2 93 +12 +12 1009.7 995.5
04 12.09 Ю 4 5000 м ливневой дождь 9/9 200 м
[]
+13.2 +12.4 95 +11 +11 1009.1 994.9
05 12.09 Ю 4 25 км 9/9 300 м
[]
+13.6 +12.5 93 +12 +12 1008.4 994.2
06 12.09 Ю 6 25 км 10/10 300 м
[]
+14.0 +12.4 90 +12 +12 1007.9 993.7 +12.9 +14.8
07 12.09 Ю 5 9000 м слаб. ливневой дождь 10/10 200 м
[]
+13.8 +12.7 93 +12 +12 1007.8 993.6
08 12.09 Ю 6 30 км 9/9 200 м
[]
+14.0 +12.7 92 +12 +12 1008.0 993.8
09 12.09 Ю 4 40 км 9/9 300 м
[]
+14.6 +12.8 89 +13 +14 1007.7 993.6
10 12.09 Ю 6 40 км 9/9 300 м
[]
+15.6 +12.2 80 +14 +14 1007.4 993.3
11 12.09 Ю 5 45 км 9/9 300 м
[]
+15.8 +12.0 78 +15 +15 1007.5 993.4
12 12.09 Ю 5 35 км 9/6 300 м
[]
+15.1 +13.3 89 +14 +14 1007.7 993.6
13 12.09 ЮЗ 8 40 км 9/9 200 м
[]
+14.6 +12.5 87 +12 +12 1008.0 993.9
14 12.09 З 9 40 км 9/9 600 м
[]
+14.9 +11.5 80 +13 +13 1008.5 994.4
15 12.09 З 7 40 км 6/6 1000 м
[]
+14.5 +10.7 78 +12 +13 1009.3 995.1
16 12.09 ЮЗ 6 40 км 6/6 1000 м
[]
+14.3 +10.5 78 +12 +12 1009.5 995.3
17 12.09 Ю 4 45 км 9/9 600 м
[]
+13.8 +11.0 83 +12 +12 1010.0 995.8
18 12.09 Ю 4 40 км ясно +12.9 +10.6 86 +11 +11 1010.3 996.0 +12.9 +15.8
19 12.09 Ю 4 35 км 9/0
[]
+12.7 +10.8 88 +11 +11 1010.2 995.9
20 12.09 Ю 3 40 км 9/9 1000 м
[]
+12.5 +10.4 87 +11 +11 1010.0 995.7
21 12.09 Ю 4 40 км 9/4 1000 м
[]
+12.6 +10.7 88 +11 +11 1009.4 995.1
22 12.09 Ю 4 35 км 6/1 1500 м
[]
+12.6 +10.7 88 +11 +11 1008.9 994.7
23 12.09 Ю 6 35 км 9/9
[]
+12.8 +10.5 86 +10 +10 1008.5 994.3
00 13.09 Ю 4 25 км 9/1 1500 м
[]
+12.6 +10.7 88 +11 +11 1008.1 993.9
01 13.09 Ю 4 25 км слаб. дождь 9/1 1500 м
[]
+12.4 +10.6 89 +10 +10 1007.9 993.7
02 13.09 Ю 4 25 км 9/1 1500 м
[]
+12.1 +11.0 93 +10 +10 1007.5 993.2
03 13.09 Ю 4 20 км 9/4 1000 м
[]
+11.9 +11.0 94 +10 +10 1007.0 992.7
04 13.09 ЮЗ 4 25 км 9/9 200 м
[]
+11.7 +10.8 94 +9 +9 1007.2 992.9
05 13.09 З 3 30 км 6/6 300 м
[]
+12.2 +10.9 92 +11 +11 1007.2 993.0
06 13.09 З 2 35 км 6/1 1500 м
[]
+12.2 +10.3 88 +11 +12 1007.8 993.5 +11.7 +12.9
07 13.09 З 2 35 км слаб. ливневой дождь 9/4 600 м
[]
+12.2 +10.3 88 +11 +11 1007.7 993.4
08 13.09 З 3 30 км 6/4 300 м
[]
+12.6 +9.8 83 +11 +13 1007.6 993.4
09 13.09 З 4 40 км 9/9 300 м
[]
+13.0 +8.1 72 +11 +12 1007.9 993.7
10 13.09 З 3 35 км 6/0
[]
+13.0 +7.7 70 +12 +15 1007.7 993.5
11 13.09 З 3 35 км 9/4 600 м
[]
+13.3 +8.2 71 +12 +14 1007.9 993.7
12 13.09 З 4 35 км 6/0
[]
+14.2 +4.8 53 +13 +15 1008.0 993.8
13 13.09 З 5 30 км 1/1 1000 м
[]
+14.0 +5.6 57 +12 +14 1008.1 993.9
14 13.09 З 5 35 км 4/1 1000 м
[]
+14.0 +4.6 53 +12 +13 1008.4 994.2
15 13.09 З 5 40 км 1/0 1500 м
[]
+13.1 +4.5 56 +11 +12 1008.9 994.7
16 13.09 З 6 35 км 1/1 1500 м
[]
+12.4 +4.9 60 +10 +10 1009.4 995.1
17 13.09 З 4 45 км ясно +11.1 +5.2 67 +9 +9 1009.6 995.3
18 13.09 З 5 15 км слаб. дождь 6/6 1000 м
[]
+10.4 +6.2 75 +8 +8 1010.0 995.6 +9.7 +14.5
19 13.09 З 4 40 км 6/4 1000 м
[]
+9.6 +6.7 82 +7 +7 1010.2 995.8
20 13.09 З 4 50 км 1/1 1000 м
[]
+9.3 +6.2 81 +6 +6 1010.4 996.0
21 13.09 З 4 45 км 4/4 600 м
[]
+8.7 +6.8 88 +6 +6 1011.0 996.5
22 13.09 З 4 35 км 6/6 600 м
[]
+9.1 +7.1 87 +6 +6 1011.5 997.0
23 13.09 З 4 45 км 9/9 1500 м
[]
+9.1 +7.1 87 +6 +6 1011.6 997.1
00 14.09 З 3 35 км ясно +8.9 +6.7 86 +6 +6 1012.0 997.5
01 14.09 З 4 40 км ясно +8.6 +6.2 85 +5 +5 1012.3 997.8
02 14.09 З 3 40 км ясно +7.4 +5.7 89 +4 +4 1012.6 998.0
03 14.09 З 4 45 км ясно +7.3 +5.6 89 +4 +4 1012.9 998.3
04 14.09 З 3 50 км ясно +7.1 +5.4 89 +4 +4 1013.0 998.4
05 14.09 З 3 50 км 1/1 600 м
[]
+7.8 +5.8 87 +5 +5 1013.2 998.6
06 14.09 З 3 40 км 4/4 600 м
[]
+9.0 +5.9 81 +7 +7 1013.5 999.0 +7.1 +10.4
07 14.09 З 5 50 км 1/0 600 м
[]
+9.8 +5.6 75 +7 +8 1013.7 999.2
08 14.09 З 6 35 км 4/4 600 м
[]
+10.6 +5.0 68 +8 +8 1013.7 999.3
09 14.09 З 6 40 км 4/4 600 м
[]
+11.5 +4.7 63 +9 +10 1014.1 999.7
10 14.09 З 6 35 км 6/6 1000 м
[]
+11.7 +4.7 62 +9 +10 1014.1 999.7
11 14.09 З 5 25 км слаб. ливневой дождь 6/4 600 м
[]
+9.9 +6.4 79 +7 +8 1014.2 999.7
12 14.09 З 7 35 км 1/0 600 м
[]
+12.4 +4.4 58 +10 +11 1014.0 999.7
13 14.09 З 7 35 км 9/9 1000 м
[]
+12.1 +5.1 62 +9 +9 1014.2 999.9
14 14.09 З 6 10 км слаб. дождь 4/4 1000 м
[]
+11.3 +5.4 67 +8 +9 1014.4 1000.0
15 14.09 З 4 40 км 9/9 600 м
[]
+10.2 +5.6 73 +8 +8 1014.5 1000.1
16 14.09 З 3 35 км ясно +10.4 +5.6 72 +8 +9 1014.5 1000.1
17 14.09 З 3 45 км слаб. ливневой дождь 9/6 1000 м
[]
+9.5 +6.2 80 +7 +7 1014.6 1000.1
18 14.09 З 2 40 км 6/6 1000 м
[]
+8.6 +5.9 83 +7 +7 1014.7 1000.2 +7.7 +13.2
19 14.09 Ю 2 40 км ясно +7.0 +5.0 87 +5 +5 1014.3 999.7
20 14.09 Ю 3 40 км 1/0 1000 м
[]
+6.6 +4.6 87 +3 +3 1013.9 999.3
21 14.09 ЮЗ 2 35 км 6/0 2000 м
[]
+6.3 +4.8 90 +4 +4 1013.3 998.7
22 14.09 Ю 2 40 км 9/1 1000 м
[]
+6.1 +4.3 88 +4 +4 1012.3 997.7
23 14.09 Ю 2 40 км 6/0
[]
+5.6 +3.9 89 +3 +3 1011.2 996.6
00 15.09 Ю 3 45 км 10/0
[]
+6.3 +3.8 84 +3 +3 1009.7 995.1
01 15.09 Ю 3 45 км 10/10
[]
+6.4 +4.1 85 +3 +3 1008.5 993.9
02 15.09 Ю 3 45 км 10/4 1500 м
[]
+7.6 +4.7 82 +5 +5 1006.5 992.0
03 15.09 Ю 4 15 км слаб. дождь 10/10 1000 м
[]
+7.3 +5.9 91 +4 +4 1004.1 989.7
04 15.09 Ю 3 10 км дождь 10/10 200 м
[]
+7.2 +6.6 96 +4 +4 1002.2 987.8
05 15.09 ЮВ 4 10 км слаб. дождь 9/9 100 м
[]
+7.4 +6.8 96 +4 +4 999.9 985.5
06 15.09 ЮВ 5 10 км слаб. дождь 10/10 100 м
[]
+8.1 +7.5 96 +4 +4 996.8 982.5 +5.5 +8.6
07 15.09 Ю 5 7000 м слаб. дождь 10/10 100 м
[]
+8.6 +8.0 96 +5 +5 994.6 980.4
08 15.09 Ю 4 4100 м слаб. дождь 9/9 50 м
[]
+9.3 +8.8 97 +6 +6 992.3 978.1
09 15.09 Ю 4 2700 м слаб. ливневой дождь 9/9 100 м
[]
+10.4 +9.9 97 +8 +8 990.2 976.1
10 15.09 Ю 4 10 км слаб. ливневой дождь 9/9 100 м
[]
+11.3 +10.5 95 +9 +9 989.1 975.1
11 15.09 ЮЗ 5 30 км слаб. ливневой дождь 9/9 200 м
[]
+11.9 +10.3 90 +9 +10 987.9 973.9
12 15.09 Ю 4 45 км 9/9 300 м
[]
+11.4 +10.0 91 +9 +9 987.5 973.5
13 15.09 ЮЗ 4 20 км слаб. дождь 9/4 300 м
[]
+12.1 +10.2 88 +10 +11 986.7 972.7
14 15.09 З 6 30 км 1/0 1500 м
[]
+11.5 +8.0 79 +9 +9 986.7 972.7
15 15.09 З 6 45 км 9/6 300 м
[]
+10.7 +8.3 85 +7 +8 986.8 972.8
16 15.09 З 5 40 км 6/6 600 м
[]
+10.7 +7.8 82 +8 +8 987.6 973.6
17 15.09 З 5 40 км 1/0 600 м
[]
+10.0 +6.7 80 +7 +7 987.9 973.8
18 15.09 З 5 40 км 4/1 600 м
[]
+9.5 +6.8 83 +6 +6 988.2 974.1 +8.1 +12.3
19 15.09 З 5 50 км слаб. ливневой дождь 6/1 1000 м
[]
+8.9 +6.2 83 +5 +5 988.0 973.9
20 15.09 З 4 45 км 6/6 600 м
[]
+8.0 +6.0 87 +5 +5 988.4 974.2
21 15.09 З 4 45 км слаб. ливневой дождь 9/9 600 м
[]
+8.0 +6.6 91 +5 +5 988.4 974.2
22 15.09 З 3 40 км 9/9 1000 м
[]
+7.5 +6.6 94 +4 +4 988.1 973.9
23 15.09 З 3 45 км 1/1 1500 м
[]
+7.4 +6.2 92 +4 +4 988.2 974.0
00 16.09 З 3 50 км 1/0 1000 м
[]
+7.2 +6.1 93 +4 +4 988.4 974.2
01 16.09 З 3 45 км ясно +7.2 +6.1 93 +4 +4 988.2 974.0
02 16.09 З 3 40 км 4/4 1000 м
[]
+7.3 +6.4 94 +4 +4 988.4 974.2
03 16.09 З 3 40 км 9/9 600 м
[]
+7.7 +6.3 91 +5 +5 988.5 974.3
04 16.09 З 3 50 км 9/9 1000 м
[]
+7.8 +6.3 90 +5 +5 988.4 974.2
05 16.09 З 4 50 км 1/1 1000 м
[]
+7.3 +5.8 90 +4 +4 988.7 974.5
06 16.09 СЗ 3 45 км 6/6 200 м
[]
+7.4 +5.9 90 +4 +5 989.2 975.0 +6.8 +9.7
07 16.09 СЗ 4 40 км 10/10 200 м
[]
+7.5 +6.0 90 +4 +4 989.7 975.5
08 16.09 С 3 40 км 9/9 200 м
[]
+8.0 +6.3 89 +5 +5 990.5 976.3
09 16.09 СЗ 3 50 км 9/6 300 м
[]
+9.2 +7.0 86 +7 +8 991.4 977.2
10 16.09 С 4 40 км 9/9 600 м
[]
+8.7 +7.0 89 +6 +6 992.2 978.0
11 16.09 СЗ 3 35 км 9/9 300 м
[]
+10.2 +6.5 78 +8 +9 992.8 978.7
12 16.09 С 2 30 км слаб. ливневой дождь 9/9 300 м
[]
+8.9 +6.9 87 +7 +8 993.9 979.7
13 16.09 С 3 20 км слаб. ливневой дождь 9/9 300 м
[]
+8.6 +7.4 92 +6 +6 994.5 980.3
14 16.09 СЗ 4 45 км 9/6 200 м
[]
+8.7 +7.0 89 +6 +6 995.4 981.1
15 16.09 СЗ 3 40 км 9/9 300 м
[]
+8.6 +6.9 89 +6 +6 995.9 981.6
16 16.09 СЗ 3 35 км 9/1 300 м
[]
+8.6 +6.9 89 +6 +6 996.1 981.8
17 16.09 З 3 40 км 9/9 200 м
[]
+8.2 +6.7 90 +5 +5 996.6 982.3
18 16.09 З 2 35 км 9/6 600 м
[]
+8.0 +6.8 92 +6 +6 996.9 982.6 +7.4 +10.2
19 16.09 З 3 35 км 9/9 300 м
[]
+7.7 +6.3 91 +5 +5 997.1 982.8
20 16.09 З 2 35 км 9/0
[]
+6.7 +5.3 91 +4 +4 997.5 983.1
21 16.09 СЗ 2 40 км 9/0
[]
+6.1 +4.4 89 +4 +4 997.6 983.2

 

Местоположение метеостанции Аэропорт Пирккала (Финляндия): широта 61.42 долгота 23.62 высота над уровнем моря 112 м.

В архиве по умолчанию представлена погода в Аэропорту Пирккала за последнюю неделю. Архивные данные за месяц целиком и за предыдущие месяцы, начиная с января 2011 года, Вы можете получить, выбрав интересующий диапазон дат из раскрывающегося списка и нажав кнопку "Ввод!".


*Определитесь, кто Вы:
робот инопланетянин человек

Внимание! Время в таблицах - всемирное. Для получения местного времени необходимо прибавить поправку, которая равна 1 ч.

Смотрите также архив погоды в соседних городах и на ближайших метеорологических станциях:

Погода в Тампере (Финляндия) (9 км)
Погода в Тампере (Финляндия) (12 км)
Погода на Острове Сиилинкари (Финляндия) (13 км)
Погода в Лепаа (Финляндия) (51 км)
Погода в Юупайоки Хююеяля (Финляндия) (59 км)
Погода в Халли (Финляндия) (64 км)
Погода в Хямеэнлинна (Финляндия) (66 км)
Погода в Йокиойнене (Финляндия) (68 км)
Погода в Кокемяки (Финляндия) (70 км)
Погода в Ниинисало (Финляндия) (77 км)

Пояснения к столбцам:

Ветер - указаны скорость ветра в м/с - средняя за 10 мин, порывы в срок и между сроками (в фигурных скобках) и направление, откуда дует ветер: С - северный, СВ - северо-восточный, В - восточный, ЮВ - юго-восточный, Ю - южный, ЮЗ - юго-западный, З - западный, СЗ - северо-западный.
Видимость - горизонтальная дальность видимости в метрах или километрах. При видимости от 1 до 10 км при отсутствии осадков обычно наблюдается дымка, при ухудшении видимости до 1 км и менее - туман. В сухую погоду видимость может ухудшаться дымом, пылью или мглою.
Явления - указаны атмосферные явления, наблюдавшиеся в срок или в последний час перед сроком; фигурными скобками обозначены явления, наблюдавшиеся между сроками (за 1-3 часа до срока); квадратными скобками обозначены град или гололедные отложения с указанием их диаметра в мм.
Облачность - указаны через наклонную черту общая и нижняя облачность в баллах и высота нижней границы облаков в метрах; квадратными скобками обозначены формы облаков: Ci - перистые, Cs - перисто-слоистые, Cc - перисто-кучевые, Ac - высококучевые, As - высокослоистые, Sc - слоисто-кучевые, Ns - слоисто-дождевые, Cu - кучевые, Cb - кучево-дождевые. Подробнее классификацию облаков см. в Атласе облаков (PDF).
T - Температура воздуха - температура, измеренная на высоте 2 м над землей.
Td - Температура точки росы - температура, при понижении до которой содержащийся в воздухе водяной пар достигнет насыщения.
f - Относительная влажность воздуха - влажноcть воздуха, измеренная на высоте 2 м над землей.
Te - Эффективная температура - температура, которую ощущает одетый по сезону человек в тени. Характеристика душности погоды. При расчете учитывается влияние влажности воздуха и скорости ветра на теплоощущения человека.
Tes - Эффективная температура на солнце - температура, которую ощущает человек, с поправкой на солнечный нагрев. Характеристика знойности погоды. Зависит от высоты солнца над горизонтом, облачности и скорости ветра. Ночью, в пасмурную погоду, а также при ветре 12 м/с и более поправка равна нулю.
P - Атмосферное давление - приведенное к уровню моря атмосферное давление.
Po - Атмосферное давление - измеренное на уровне метеостанции атмосферное давление.
Tmin - Минимальная температура - минимум температуры воздуха на высоте 2 м над землей.
Tmax - Максимальная температура - максимум температуры воздуха на высоте 2 м над землей.
R - Количество осадков - Количество выпавших осадков за период времени, мм. При наведении курсора мыши на число - период времени, за который выпало указанное количество осадков.
R24 - Количество осадков - Количество выпавших осадков за 24 часа, мм.
S - Снежный покров - Высота снежного покрова, см. При наведении курсора мыши на число - состояние снежного покрова и степень покрытия местности в баллах.